Regional Weather Roundup
Issued by NWS Midland/Odessa, TX

Home | Current Version | Previous Version | Text Only | Print | Product List | Glossary On
Versions: 1 2 3 4 5 6 7 8 9 10 11 12 13 14 15 16 17 18 19 20 21 22 23 24 25 26 27 28 29 30 31 32 33 34 35 36 37 38 39 40 41 42 43 44 45 46 47 48 49 50
000
ASUS44 KMAF 300010
RWRMAF
MIDLAND AREA WEATHER ROUNDUP
NATIONAL WEATHER SERVICE MIDLAND TX
700 PM CDT MON JUN 29 2015

...IN SOUTHWEST TEXAS AND SOUTHEAST NEW MEXICO...

CITY           SKY/WX    TMP DP  RH WIND       PRES   REMARKS
ALPINE         MOSUNNY   89  55  31 NE8       30.11F
ANDREWS        FAIR      91  53  27 SE9G16    29.99S
ARTESIA        PTSUNNY   95  52  23 E25G36    29.99R
BIG SPRING     SUNNY     94  55  26 S8        29.99R
CARLSBAD       MOSUNNY   96  52  22 SE12G20   29.94F
DRYDEN           N/A     91  65  41 SE8       29.92F
FORT STOCKTON  SUNNY     91  58  32 SE15      29.96F
GUAD PASS      SUNNY     85  50  29 E12       30.14F
HOBBS          SUNNY     90  50  25 SE6       30.03R
MARFA          PTSUNNY  N/A N/A N/A SE10      30.11S
MIDLAND AIRPK  SUNNY     94  53  24 SE12      29.98R
MIDLAND INTL   SUNNY     93  54  26 S8        29.97R
ODESSA         SUNNY     93  51  23 S12G18    29.98S
PECOS          SUNNY     96  54  24 E13G18    29.91F
PRESIDIO       FAIR      96  54  24 NE7       29.90F
SEMINOLE       MOSUNNY   91  52  25 E8        30.02R
SNYDER         SUNNY     91  58  32 E3        29.99R
WINK           MOSUNNY   94  57  28 SE9       29.94S
$$
...OTHER STATIONS IN TEXAS...

CITY           SKY/WX    TMP DP  RH WIND       PRES   REMARKS
ABILENE        PTSUNNY   93  67  42 SE12      29.93F
AMARILLO       CLOUDY    83  56  39 NE14      30.07F
AUSTIN         MOSUNNY   89  70  53 S13       29.92F
BROWNSVILLE    MOSUNNY   88  76  67 SE15      29.95R
CORPUS CHRISTI PTSUNNY   85  74  69 SE15      29.94F
DALLAS FTW     MOSUNNY   94  65  38 S6        29.88F
DEL RIO        SUNNY     92  67  43 SE16G22   29.89F
EL PASO        CLOUDY    94  47  20 E6        29.99F
HOUSTON INT    CLOUDY    87  74  64 S8        29.95F
LUBBOCK        TSTM      73  61  65 N25G46    30.06R BLWGDUST
SAN ANGELO     SUNNY     91  67  44 S7        29.93F
SAN ANTONIO    MOSUNNY   90  64  42 S15       29.94F
WACO           CLOUDY    86  72  62 S8        29.92S
WICHITA FALLS  NOT AVBL
$$
...OTHER LOCATIONS IN NEW MEXICO...

CITY           SKY/WX    TMP DP  RH WIND       PRES   REMARKS
ALAMAGORDO     CLOUDY    91  46  21 NE7       30.02F
ALBUQUERQUE    CLOUDY    89  43  20 SE10      30.10F
CANNON AFB     MOSUNNY   86  53  32 NE20G25   30.10R
CLOVIS         MOSUNNY   86  55  35 E15G23    30.11S
HOLLOMAN AFB   PTSUNNY   92  46  20 E8        30.00F
ROSWELL        LGT RAIN  90  53  28 E16       30.00R
RUIDOSO        PTSUNNY   73  52  46 SW9       30.27F
SANTA FE       PTSUNNY   80  43  26 SE15      30.22S
TRUTH OR CONSE PTSUNNY   95  45  17 E13G20    30.04F
TUCUMCARI      LGT RAIN  72  61  68 NE17      30.11R
$$


USA.gov is the U.S. government's official web portal to all federal, state and local government web resources and services.